Meteo pe oră la Alimkina

Astăzi, 28 Ianuarie, Joi

Timp Temperatura Precipitaţii Vânt Presiune Umiditate
00:00 -4°C° 0.2 mm 2 m/s 735 mmHg 95%
01:00 -4°C° 0.2 mm 2 m/s 734 mmHg 95%
02:00 -4°C° 0.2 mm 3 m/s 734 mmHg 96%
03:00 -2°C° 0.4 mm 3 m/s 734 mmHg 97%
04:00 -2°C° 0.4 mm 3 m/s 734 mmHg 98%
05:00 -1°C° 0.4 mm 3 m/s 733 mmHg 98%
06:00 -2°C° 0.4 mm 4 m/s 733 mmHg 98%
07:00 -2°C° 0.4 mm 4 m/s 733 mmHg 97%
08:00 -2°C° 0.4 mm 4 m/s 733 mmHg 97%
09:00 -2°C° 0.1 mm 4 m/s 732 mmHg 97%
10:00 -1°C° 0.1 mm 4 m/s 732 mmHg 98%
11:00 -1°C° 0.1 mm 4 m/s 732 mmHg 99%
12:00 -1°C° 0.1 mm 4 m/s 732 mmHg 99%
13:00 -1°C° 0.1 mm 4 m/s 732 mmHg 99%
14:00 -1°C° 0.1 mm 4 m/s 731 mmHg 99%
15:00 -1°C° 0.1 mm 5 m/s 732 mmHg 98%
16:00 -1°C° 0.1 mm 5 m/s 732 mmHg 97%
17:00 -2°C° 0.1 mm 6 m/s 732 mmHg 96%
18:00 -2°C° 0 mm 5 m/s 731 mmHg 96%
19:00 -2°C° 0 mm 4 m/s 731 mmHg 95%
20:00 -2°C° 0 mm 4 m/s 731 mmHg 95%
21:00 -2°C° 0 mm 4 m/s 731 mmHg 96%
22:00 -1°C° 0 mm 5 m/s 730 mmHg 97%
23:00 -1°C° 0 mm 5 m/s 730 mmHg 97%

Mâine, 29 Ianuarie, Vineri

Timp Temperatura Precipitaţii Vânt Presiune Umiditate
00:00 -1°C° 0.1 mm 5 m/s 730 mmHg 98%
01:00 -1°C° 0.1 mm 5 m/s 730 mmHg 98%
02:00 -1°C° 0.1 mm 5 m/s 730 mmHg 98%
03:00 -1°C° 0.2 mm 5 m/s 729 mmHg 98%
04:00 -1°C° 0.2 mm 5 m/s 729 mmHg 98%
05:00 -1°C° 0.2 mm 4 m/s 729 mmHg 98%
06:00 -2°C° 0.1 mm 5 m/s 729 mmHg 95%
07:00 -4°C° 0.1 mm 5 m/s 728 mmHg 93%
08:00 -5°C° 0.1 mm 5 m/s 728 mmHg 91%
09:00 -5°C° 0 mm 6 m/s 728 mmHg 90%
10:00 -4°C° 0 mm 7 m/s 727 mmHg 89%
11:00 -5°C° 0 mm 8 m/s 727 mmHg 88%
12:00 -5°C° 0.1 mm 8 m/s 726 mmHg 89%
13:00 -5°C° 0.1 mm 8 m/s 726 mmHg 90%
14:00 -5°C° 0.1 mm 8 m/s 726 mmHg 91%
15:00 -5°C° 0.2 mm 8 m/s 726 mmHg 91%
16:00 -4°C° 0.2 mm 7 m/s 726 mmHg 91%
17:00 -4°C° 0.2 mm 7 m/s 726 mmHg 91%
18:00 -6°C° 0.1 mm 7 m/s 726 mmHg 92%
19:00 -6°C° 0.1 mm 6 m/s 726 mmHg 93%
20:00 -6°C° 0.1 mm 5 m/s 726 mmHg 94%
21:00 -7°C° 0.2 mm 5 m/s 726 mmHg 94%
22:00 -7°C° 0.2 mm 4 m/s 726 mmHg 93%
23:00 -7°C° 0.2 mm 4 m/s 726 mmHg 93%

Poimâine, 30 Ianuarie, Sâmbătă

Timp Temperatura Precipitaţii Vânt Presiune Umiditate
00:00 -7°C° 0.1 mm 4 m/s 726 mmHg 93%
01:00 -7°C° 0.1 mm 4 m/s 726 mmHg 93%
02:00 -7°C° 0.1 mm 4 m/s 726 mmHg 94%
03:00 -7°C° 0 mm 3 m/s 726 mmHg 94%
04:00 -8°C° 0 mm 3 m/s 726 mmHg 93%
05:00 -9°C° 0 mm 3 m/s 726 mmHg 93%
06:00 -9°C° 0 mm 3 m/s 726 mmHg 94%
07:00 -10°C° 0 mm 3 m/s 727 mmHg 94%
08:00 -11°C° 0 mm 4 m/s 727 mmHg 94%
09:00 -10°C° 0 mm 4 m/s 728 mmHg 93%
10:00 -10°C° 0 mm 5 m/s 728 mmHg 92%
11:00 -10°C° 0 mm 5 m/s 729 mmHg 91%
12:00 -9°C° 0 mm 6 m/s 729 mmHg 90%
13:00 -9°C° 0 mm 6 m/s 729 mmHg 89%
14:00 -8°C° 0 mm 6 m/s 729 mmHg 87%
15:00 -8°C° 0 mm 5 m/s 729 mmHg 89%
16:00 -8°C° 0 mm 5 m/s 729 mmHg 90%
17:00 -8°C° 0 mm 5 m/s 729 mmHg 91%
18:00 -8°C° 0.1 mm 5 m/s 729 mmHg 92%
19:00 -8°C° 0.1 mm 5 m/s 729 mmHg 93%
20:00 -7°C° 0.1 mm 5 m/s 729 mmHg 95%
21:00 -7°C° 0.6 mm 5 m/s 728 mmHg 95%
22:00 -6°C° 0.6 mm 6 m/s 728 mmHg 95%
23:00 -6°C° 0.6 mm 6 m/s 727 mmHg 95%

31 Ianuarie, Duminică

Timp Temperatura Precipitaţii Vânt Presiune Umiditate
00:00 -5°C° 0.8 mm 6 m/s 726 mmHg 96%
01:00 -5°C° 0.8 mm 6 m/s 725 mmHg 96%
02:00 -4°C° 0.8 mm 6 m/s 724 mmHg 97%
03:00 -4°C° 1.1 mm 6 m/s 723 mmHg 97%
04:00 -3°C° 1.1 mm 6 m/s 723 mmHg 97%
05:00 -2°C° 1.1 mm 7 m/s 722 mmHg 98%
06:00 -2°C° 0.9 mm 7 m/s 721 mmHg 98%
07:00 -2°C° 0.9 mm 7 m/s 721 mmHg 98%
08:00 -3°C° 0.9 mm 7 m/s 720 mmHg 97%
09:00 -3°C° 0.7 mm 7 m/s 720 mmHg 98%
10:00 -3°C° 0.7 mm 6 m/s 719 mmHg 98%
11:00 -2°C° 0.7 mm 5 m/s 719 mmHg 99%
12:00 -3°C° 0.4 mm 6 m/s 719 mmHg 98%
13:00 -4°C° 0.4 mm 6 m/s 719 mmHg 97%
14:00 -4°C° 0.4 mm 6 m/s 719 mmHg 97%
15:00 -6°C° 0.2 mm 7 m/s 720 mmHg 94%
16:00 -7°C° 0.2 mm 8 m/s 721 mmHg 92%
17:00 -9°C° 0.2 mm 9 m/s 722 mmHg 89%
18:00 -10°C° 0 mm 9 m/s 724 mmHg 89%
19:00 -10°C° 0 mm 9 m/s 725 mmHg 89%
20:00 -11°C° 0 mm 8 m/s 727 mmHg 89%
21:00 -11°C° 0 mm 8 m/s 728 mmHg 89%
22:00 -12°C° 0 mm 7 m/s 729 mmHg 89%
23:00 -12°C° 0 mm 7 m/s 730 mmHg 89%

1 Februarie, Luni

Timp Temperatura Precipitaţii Vânt Presiune Umiditate
00:00 -12°C° 0 mm 7 m/s 731 mmHg 89%
01:00 -11°C° 0 mm 6 m/s 732 mmHg 90%
02:00 -11°C° 0 mm 6 m/s 733 mmHg 90%
03:00 -12°C° 0 mm 6 m/s 734 mmHg 91%
04:00 -12°C° 0 mm 5 m/s 734 mmHg 92%
05:00 -13°C° 0 mm 5 m/s 735 mmHg 92%
06:00 -13°C° 0 mm 5 m/s 736 mmHg 93%
07:00 -14°C° 0 mm 5 m/s 736 mmHg 94%
08:00 -14°C° 0 mm 5 m/s 737 mmHg 94%
09:00 -12°C° 0 mm 4 m/s 738 mmHg 94%
10:00 -12°C° 0 mm 4 m/s 738 mmHg 93%
11:00 -10°C° 0 mm 3 m/s 738 mmHg 92%
12:00 -9°C° 0 mm 3 m/s 738 mmHg 92%
13:00 -9°C° 0 mm 3 m/s 738 mmHg 93%
14:00 -8°C° 0 mm 2 m/s 738 mmHg 93%
15:00 -9°C° 0 mm 3 m/s 738 mmHg 93%
16:00 -9°C° 0 mm 3 m/s 738 mmHg 93%
17:00 -9°C° 0 mm 3 m/s 738 mmHg 92%
18:00 -9°C° 0.3 mm 4 m/s 737 mmHg 93%
19:00 -10°C° 0.3 mm 5 m/s 736 mmHg 94%
20:00 -9°C° 0.3 mm 6 m/s 736 mmHg 94%
21:00 -9°C° 0.9 mm 6 m/s 735 mmHg 94%
22:00 -9°C° 0.9 mm 6 m/s 734 mmHg 94%
23:00 -9°C° 0.9 mm 7 m/s 733 mmHg 94%

2 Februarie, Marţi

Timp Temperatura Precipitaţii Vânt Presiune Umiditate
00:00 -8°C° 0.7 mm 6 m/s 732 mmHg 95%
01:00 -8°C° 0.7 mm 6 m/s 731 mmHg 95%
02:00 -6°C° 0.7 mm 6 m/s 730 mmHg 95%
03:00 -5°C° 0.5 mm 5 m/s 729 mmHg 96%
04:00 -2°C° 0.5 mm 5 m/s 728 mmHg 98%
05:00 -1°C° 0.5 mm 4 m/s 727 mmHg 99%
06:00 -1°C° 0.4 mm 4 m/s 727 mmHg 99%
07:00 -1°C° 0.4 mm 5 m/s 726 mmHg 98%
08:00 -1°C° 0.4 mm 5 m/s 726 mmHg 98%
09:00 -1°C° 0.1 mm 5 m/s 726 mmHg 98%
10:00 -2°C° 0.1 mm 6 m/s 727 mmHg 99%
11:00 -2°C° 0.1 mm 6 m/s 727 mmHg 99%
12:00 -4°C° 0.1 mm 7 m/s 728 mmHg 95%
13:00 -6°C° 0.1 mm 7 m/s 729 mmHg 92%
14:00 -8°C° 0.1 mm 8 m/s 729 mmHg 88%
15:00 -8°C° 0 mm 8 m/s 731 mmHg 88%
16:00 -9°C° 0 mm 7 m/s 732 mmHg 89%
17:00 -9°C° 0 mm 7 m/s 733 mmHg 89%
18:00 -9°C° 0 mm 7 m/s 734 mmHg 89%
19:00 -9°C° 0 mm 7 m/s 735 mmHg 88%
20:00 -11°C° 0 mm 7 m/s 736 mmHg 88%
21:00 -11°C° 0 mm 6 m/s 736 mmHg 89%
22:00 -12°C° 0 mm 6 m/s 737 mmHg 89%
23:00 -14°C° 0 mm 5 m/s 737 mmHg 90%
Arată mai mult

Formular de consimțământ

Meteoprog și furnizorii noștri de servicii pot stoca și accesa date personale, precum cookies, identificatori de dispozitiv sau alte tehnologii similare pe dispozitivul dumneavoastră și procesa astfel de date pentru a personaliza conținutul și reclamele, dar și pentru a oferi caracteristici de social media și pentru a analiza traficul.

  • Stocarea și/sau accesarea informațiilor pe dispozitivul dumneavoastră

    Cookies, identificatori de dispozitiv sau alte informații pot fi stocate sau accesate pe dispozitiv în scopurile indicate mai sus.

  • Reclame și conținut personalizat, evaluarea reclamelor și a conținutului, informații despre audiențe și dezvoltarea produselor

    Reclamele și conținutul pot fi personalizate pe baza unui profil. Pot fi adăugate date suplimentare pentru a personaliza mai bine reclamele și conținutul. Performanța reclamelor și conținutului poate fi măsurată. Pot fi obținute informații despre utilizatorii care au văzut reclamele și conținutul. Aceste date pot fi utilizate pentru a dezvolta sau îmbunătăți experiența utilizatorilor, sistemele și software-ul.

Dând clic pe ‘Sunt de acord’, permiteți utilizarea cookie-urilor menționate, a identificatorilor de dispozitiv, balizelor web sau altor tehnologii similare. Setările pot fi modificate din browser-ul dispozitivului dumneavoastră.

În anumite scopuri, interesele legitime pot prima asupra consimțământului. Puteți citi mai multe informații în acest sens în Politica privind Confidențialitatea Datelor și Cookie.